Wetbulb
55.82 52.46 51.31 55.13 57.35 58.67 59.43 58.80 56.87 60.57 61.41 62.28 61.82 61.98 64.21 67.06 67.42 66.34 66.54 67.05 67.54 68.60 71.23 72.39 73.37 73.39 74.37 75.14 75.46 76.24 77.22 79.91 77.98 76.15 75.46 75.93 75.20 77.66 76.76 76.92 76.91 78.60 78.37 78.30
53.35 50.53 54.64 57.46 57.53 57.65 58.12 58.02 57.93 59.55 61.55 61.90 61.76 61.61 63.83 66.43 67.02 67.43 67.09 67.11 67.30 68.10 69.81 71.64 73.09 73.38 74.07 74.95 76.06 77.47 78.23 80.01 78.84 77.46 78.04 77.36 77.21 75.84 76.95 77.18 78.13 79.12 78.13 79.31
51.24 52.49 55.14 56.14 56.15 56.21 57.01 57.45 58.10 57.04 62.19 62.95 61.52 59.81 61.99 64.62 67.03 68.23 68.25 68.44 68.67 68.23 68.70 70.80 72.31 73.28 74.02 74.52 75.94 77.98 79.68 80.15 79.91 80.26 79.21 78.04 77.97 77.11 75.91 74.56 74.70 76.33 77.28 76.88
52.73 55.03 53.59 54.48 54.62 56.68 54.50 58.88 58.60 58.00 57.82 55.98 61.01 54.38 60.43 62.67 63.69 66.01 67.68 68.43 68.02 68.79 69.40 70.39 71.87 72.91 73.60 74.57 76.22 78.76 79.92 80.48 80.35 80.94 78.71 79.41 75.78 73.90 73.62 74.88 75.00 75.63 76.25 75.98
51.98 52.43 52.63 52.53 54.44 57.29 55.83 59.34 58.81 58.75 57.32 58.20 57.37 55.45 57.50 61.88 61.28 63.00 66.36 68.43 68.92 69.21 69.53 69.45 70.75 72.76 73.85 74.69 75.42 77.30 80.21 80.83 80.98 80.66 79.93 77.83 77.50 75.04 74.87 74.58 78.79 77.36 78.59 76.34
54.32 56.41 54.64 54.34 56.10 56.96 58.32 57.88 58.75 58.44 57.27 52.32 57.49 55.81 56.94 58.60 61.93 63.43 65.84 67.88 69.24 68.91 69.98 70.78 71.46 72.66 73.36 74.41 75.08 76.52 79.58 80.95 81.52 81.10 80.84 80.72 80.22 77.54 75.63 75.88 75.28 74.28 73.61 74.53
53.00 53.41 54.66 55.47 53.22 56.03 55.86 55.21 51.04 50.22 50.68 50.51 58.13 56.55 57.95 61.62 62.99 64.20 64.11 66.03 68.73 69.91 69.41 70.40 70.81 71.00 72.95 74.10 75.43 76.01 79.01 80.39 81.63 80.89 80.59 80.22 80.73 80.66 79.64 78.04 75.30 76.85 72.40 72.50
49.45 47.86 53.12 54.50 53.30 52.94 53.83 54.39 51.05 46.95 48.22 50.85 56.89 54.13 57.44 63.37 64.23 64.56 64.42 65.48 67.54 69.56 69.96 69.77 70.69 70.75 72.19 73.63 75.94 76.71 78.12 80.04 81.09 80.91 80.81 81.49 81.49 77.74 77.30 78.43 76.02 74.55 72.57 72.92
50.77 50.29 55.10 54.92 54.85 54.05 53.33 52.15 56.30 53.17 54.38 51.82 54.16 57.37 60.04 62.58 62.57 63.85 64.21 64.44 64.60 68.17 69.69 70.03 70.38 70.71 70.88 73.32 75.53 76.51 77.73 79.81 80.93 80.31 81.41 81.12 81.15 80.25 77.58 79.17 79.82 76.56 77.99 73.41
53.85 50.47 54.67 54.47 55.21 54.11 53.16 56.16 51.45 53.65 49.01 48.79 51.92 53.75 55.34 59.72 60.53 62.48 62.92 62.83 63.74 65.51 68.34 70.14 70.58 71.21 72.48 72.34 74.85 76.91 78.18 79.90 80.52 80.57 80.97 80.17 80.53 80.63 80.63 80.90 80.22 79.03 78.28 76.33
54.34 53.17 52.57 54.80 52.33 51.08 50.99 51.64 53.88 54.03 53.33 49.95 48.90 52.80 60.38 60.77 61.79 61.22 62.29 63.18 63.66 64.24 66.40 69.26 71.06 71.75 73.41 73.21 74.14 75.77 77.58 79.11 80.17 80.28 80.18 80.01 79.89 79.71 80.10 79.30 79.57 79.36 79.05 77.17
54.89 53.08 50.45 52.25 55.14 55.36 53.87 51.91 52.99 53.26 51.67 53.21 53.26 52.71 61.02 61.15 62.02 62.31 62.56 63.16 63.83 64.62 65.49 67.52 69.94 71.60 72.52 74.57 73.71 74.13 75.77 76.68 78.59 79.40 80.42 79.90 80.38 79.90 79.24 79.36 79.65 79.63 78.36 77.19
55.21 52.25 48.87 50.54 53.18 54.93 52.21 52.91 52.87 53.44 54.91 54.30 51.41 52.47 61.28 61.21 61.74 62.35 62.25 63.11 64.54 64.71 66.39 68.06 68.39 70.72 73.25 75.02 75.52 75.19 76.05 75.26 76.77 78.76 78.83 79.90 79.99 79.59 79.09 79.50 79.71 79.32 77.60 75.98
58.58 53.09 51.14 48.56 51.24 53.31 51.14 51.51 52.45 52.10 51.33 52.87 53.04 55.19 58.37 60.01 60.88 62.05 62.50 63.33 63.80 65.09 66.39 69.70 69.67 68.61 73.30 75.28 76.25 76.77 76.20 75.40 76.16 77.01 77.90 79.22 79.73 79.79 79.36 79.96 79.26 78.47 76.83 75.18
54.69 51.78 52.98 52.79 53.94 54.02 52.09 50.97 50.96 50.73 52.34 51.15 54.04 54.80 58.19 60.14 60.92 62.52 63.19 63.58 63.75 63.97 64.94 69.57 70.87 71.44 75.45 75.91 77.65 77.47 77.91 78.02 77.20 78.30 78.34 79.33 80.53 80.58 80.56 79.40 78.95 77.37 76.53 73.96
54.94 51.53 53.91 52.48 53.79 53.68 52.40 51.67 51.20 51.27 51.86 52.69 53.46 54.19 60.02 61.34 62.34 62.65 62.50 62.64 63.06 63.50 64.15 68.63 71.83 72.54 74.52 76.10 77.34 78.15 77.99 78.48 79.05 78.87 78.83 80.10 80.60 80.16 79.37 78.72 78.81 76.82 74.85 73.91
53.27 51.95 51.19 48.90 52.86 52.66 49.63 52.85 53.08 52.84 53.25 52.48 50.54 55.18 58.58 58.34 60.04 61.96 65.50 63.81 63.44 64.03 64.99 65.04 71.42 73.22 75.53 75.24 77.81 77.95 78.46 79.29 79.02 79.98 79.51 80.36 80.47 79.62 78.11 77.55 77.27 75.53 74.53 73.51
53.10 53.22 52.67 49.74 51.99 44.76 53.34 56.74 55.74 54.33 55.27 55.90 55.47 56.03 57.04 57.94 60.24 62.40 64.16 63.40 64.24 65.02 65.24 66.81 69.10 72.82 74.41 75.23 76.02 78.16 77.70 79.03 79.26 79.14 79.75 80.35 79.55 78.21 76.84 76.48 76.71 76.34 74.55 72.84
55.08 53.61 49.98 48.05 48.44 52.27 53.40 55.55 55.08 54.24 54.47 57.59 56.85 57.88 58.18 58.43 58.38 60.40 62.81 64.24 66.08 66.97 67.54 68.10 65.95 71.83 75.20 75.90 77.81 78.76 78.33 78.27 78.50 78.33 79.18 79.02 78.40 77.77 76.60 74.26 75.01 75.55 74.45 71.99
55.00 56.43 52.61 50.40 46.64 45.06 53.09 59.09 61.39 60.09 52.43 59.11 59.35 59.88 58.37 58.98 54.19 58.36 63.27 62.19 63.82 65.28 66.28 66.91 68.68 70.70 74.01 76.46 76.12 77.63 77.15 77.74 77.74 77.97 78.45 78.72 78.37 76.77 75.48 74.79 74.79 74.97 73.94 72.19
49.80 51.49 49.22 51.00 49.43 51.98 59.26 60.61 60.75 51.64 54.07 63.21 63.66 63.41 62.75 60.36 59.57 62.18 64.34 64.86 67.13 67.33 68.72 70.08 71.96 72.42 76.87 77.41 77.63 77.20 76.93 76.12 77.29 77.38 77.35 77.50 76.50 76.23 76.21 75.04 75.23 72.69 70.85 69.73
49.29 49.20 48.82 50.92 49.04 45.42 60.26 59.92 55.94 60.51 64.51 65.30 65.11 64.58 64.14 65.49 62.67 62.25 67.32 67.99 68.99 69.30 70.32 71.11 72.10 73.87 75.57 77.81 77.95 77.37 77.33 78.92 78.74 77.67 76.16 76.09 76.38 75.22 74.27 73.73 72.57 71.81 70.01 70.22
49.13 53.01 51.00 52.86 53.06 61.64 62.35 62.49 63.11 62.80 62.22 64.79 65.78 65.90 65.55 65.22 65.47 66.92 68.75 68.83 69.87 71.05 71.77 72.32 72.96 74.68 75.82 77.26 78.60 76.83 78.39 78.82 77.95 76.92 76.33 75.99 75.66 74.22 73.60 71.10 69.87 68.91 69.62 69.05
55.12 57.48 56.30 57.62 59.21 59.40 60.42 62.13 63.04 63.72 63.75 65.52 66.56 66.34 66.52 65.59 66.88 67.95 69.34 70.01 70.70 71.76 72.55 73.80 73.16 73.31 75.16 77.26 77.30 77.04 77.33 78.17 76.85 75.40 74.29 72.95 71.77 71.28 71.71 69.88 69.45 69.36 68.35 68.09
49.14 50.89 56.67 57.50 58.45 59.48 60.03 60.72 61.85 62.69 64.96 66.11 67.02 67.50 67.07 66.97 67.12 67.74 68.02 69.19 69.86 70.64 71.86 72.80 72.75 73.10 73.35 74.46 74.60 75.15 75.26 75.65 74.14 72.85 72.09 70.91 70.96 71.09 68.19 62.19 61.96 68.80 66.18 62.18
49.89 49.23 52.93 55.22 59.00 59.66 58.31 60.86 61.81 61.10 61.64 63.15 63.68 63.65 63.71 65.33 66.24 67.73 67.93 69.24 69.99 70.64 71.72 72.03 72.75 72.24 72.92 73.23 73.45 74.39 74.80 74.21 72.88 71.26 70.52 68.93 68.78 68.15 68.45 66.33 61.37 45.07 46.38 44.85
MSLP
998.82 998.51 997.20 996.97 996.61 996.07 994.97 994.69 994.93 994.97 996.07 997.51 997.92 998.12 998.90 999.96 1000.74 1001.20 1002.07 1003.14 1003.81 1004.53 1005.28 1006.15 1007.08 1007.79 1008.62 1009.41 1010.43 1011.24 1011.89 1012.43 1012.99 1013.43 1013.51 1013.64 1013.83 1014.13 1014.61 1014.34 1014.80 1014.66 1015.28 1015.52
997.96 996.80 996.77 996.77 996.35 995.92 994.85 994.07 993.85 994.25 995.69 996.64 997.08 997.33 997.83 998.67 999.80 1000.34 1000.80 1001.74 1002.69 1003.46 1004.25 1005.36 1006.34 1007.12 1007.96 1008.83 1009.69 1010.69 1011.45 1012.03 1012.75 1012.83 1013.05 1012.82 1013.00 1012.85 1013.07 1012.97 1013.53 1013.97 1014.47 1014.89
995.64 995.79 996.38 995.99 995.59 995.25 994.71 993.71 993.46 993.83 995.07 996.14 996.36 996.54 996.77 997.47 998.46 999.53 1000.10 1000.46 1001.37 1002.25 1003.06 1004.14 1005.37 1006.31 1007.11 1007.97 1008.99 1009.97 1010.85 1011.57 1012.24 1012.28 1012.57 1013.04 1013.08 1012.99 1012.79 1012.90 1013.22 1013.42 1014.15 1014.39
995.34 995.08 995.20 995.16 994.84 994.76 994.21 994.19 993.77 993.80 995.50 995.21 996.11 995.14 995.38 996.21 997.03 998.01 998.93 999.50 999.90 1000.87 1001.97 1002.76 1003.98 1005.24 1006.09 1007.00 1008.18 1009.13 1010.15 1010.95 1011.68 1012.17 1011.95 1012.18 1012.38 1012.27 1012.29 1012.52 1012.50 1013.11 1013.80 1014.15
994.31 994.22 994.22 994.31 993.85 994.30 994.12 994.16 994.23 993.94 994.11 995.01 994.62 995.10 993.88 994.95 995.13 996.21 997.22 997.97 998.75 999.34 1000.48 1001.45 1002.30 1003.70 1004.96 1006.03 1006.93 1008.09 1009.24 1010.14 1010.80 1011.40 1011.79 1011.73 1012.12 1011.83 1011.99 1012.28 1012.70 1013.55 1013.85 1014.13
994.01 994.32 993.96 993.48 994.09 994.28 994.59 994.22 993.91 994.01 993.78 993.80 993.99 994.86 993.11 994.85 993.56 994.38 995.32 996.41 997.33 998.16 999.06 1000.31 1001.36 1002.38 1003.64 1004.88 1005.88 1006.85 1008.12 1009.20 1010.06 1010.57 1011.25 1011.51 1011.39 1011.88 1011.60 1012.04 1012.36 1012.94 1013.30 1013.89
993.86 993.29 993.53 993.47 993.96 994.22 994.61 994.07 993.30 993.05 992.83 992.67 994.15 993.33 994.72 992.05 992.65 993.36 993.72 994.47 995.72 996.96 997.92 998.96 1000.04 1001.03 1002.31 1003.46 1004.65 1005.77 1006.89 1008.10 1009.06 1009.78 1010.29 1011.04 1011.39 1011.63 1011.84 1011.90 1012.17 1012.14 1012.40 1012.92
992.54 992.44 992.42 993.04 992.99 993.03 993.17 993.03 992.36 992.05 992.26 992.31 992.23 991.29 991.07 991.46 991.97 992.61 993.51 993.13 993.87 995.45 996.80 997.74 998.87 1000.05 1001.09 1002.33 1003.59 1004.77 1005.73 1006.96 1008.00 1008.78 1009.50 1010.20 1010.93 1011.25 1011.38 1011.52 1011.40 1011.88 1011.90 1012.44
991.25 991.29 992.10 992.31 993.19 993.30 992.33 992.05 992.55 992.22 991.96 991.46 990.64 990.69 991.21 991.47 991.63 992.15 992.74 992.72 992.97 993.93 995.24 996.46 997.70 999.00 1000.08 1001.28 1002.50 1003.62 1004.77 1005.93 1007.00 1007.85 1008.73 1009.38 1010.03 1010.43 1010.30 1010.80 1011.39 1011.57 1011.85 1012.05
991.08 990.67 991.00 991.33 992.57 992.56 991.76 992.13 992.04 991.19 990.54 989.85 989.77 989.45 989.73 990.32 991.41 991.69 992.00 992.45 992.41 992.95 993.67 995.12 996.44 997.73 999.06 1000.27 1001.68 1002.87 1003.96 1004.92 1005.98 1006.90 1007.60 1008.28 1008.96 1009.58 1010.00 1010.25 1010.67 1011.15 1011.54 1012.14
991.32 990.75 990.32 990.96 990.39 990.72 991.42 990.60 990.53 991.06 990.86 989.74 989.18 988.38 988.65 989.44 990.53 991.15 991.55 991.72 991.44 991.79 992.54 993.68 994.99 996.37 997.83 999.11 1000.32 1001.65 1002.84 1004.05 1005.15 1005.98 1006.43 1007.12 1007.84 1008.66 1009.43 1009.63 1010.15 1010.76 1011.22 1011.97
990.77 990.68 989.96 989.44 989.98 990.66 990.87 990.56 990.47 989.85 990.30 989.94 989.12 987.73 987.76 988.67 989.56 990.42 990.45 990.53 990.73 991.09 991.31 992.02 993.41 994.87 996.27 997.76 999.01 1000.03 1001.41 1002.75 1003.98 1004.83 1005.51 1006.15 1006.91 1007.59 1008.20 1008.77 1009.27 1010.04 1010.69 1011.35
990.01 990.15 989.77 989.75 989.74 989.51 989.63 989.70 989.53 989.62 989.76 988.93 988.86 988.17 988.42 988.79 988.99 989.89 990.48 990.71 990.92 991.12 991.89 992.33 992.54 993.53 994.84 996.27 997.84 998.78 999.99 1001.08 1002.49 1003.67 1004.48 1005.21 1005.86 1006.46 1006.99 1007.69 1008.43 1009.18 1009.95 1010.63
990.26 989.72 989.33 987.96 988.45 988.66 989.08 989.46 989.25 988.89 988.22 988.21 988.11 988.67 988.22 988.37 989.07 989.61 990.29 990.60 990.70 990.98 991.70 992.67 993.06 992.76 993.66 995.15 996.55 997.83 998.78 999.86 1001.08 1002.24 1003.18 1003.98 1004.84 1005.44 1006.18 1006.86 1007.71 1008.43 1009.32 1009.83
990.72 989.68 989.40 989.20 988.59 988.54 988.11 988.42 988.81 988.26 988.04 988.02 988.00 988.10 988.25 988.31 988.77 989.14 989.88 990.36 990.66 990.73 990.98 992.09 992.91 992.86 993.51 994.80 995.83 997.11 998.01 999.01 999.78 1000.94 1001.96 1002.81 1003.91 1004.82 1005.72 1006.63 1007.29 1008.19 1008.95 1009.68
990.69 989.87 989.86 988.86 988.83 988.74 987.79 987.67 988.14 988.20 988.08 987.90 988.14 987.26 987.80 988.31 988.44 988.69 989.06 989.76 989.87 990.30 990.59 991.11 992.37 993.00 993.37 994.30 995.31 996.56 997.50 998.15 999.14 999.93 1000.75 1001.97 1003.13 1004.25 1005.22 1006.13 1006.71 1007.84 1009.00 1009.71
990.01 990.09 990.20 989.05 989.09 988.58 987.84 986.85 986.81 987.36 987.83 988.11 987.57 987.57 988.24 988.01 987.95 988.14 988.69 989.18 989.69 990.07 990.18 990.27 991.38 992.67 993.16 994.10 995.08 995.83 996.80 997.79 998.57 999.30 1000.21 1001.31 1002.67 1003.86 1004.92 1005.74 1006.34 1006.95 1007.83 1008.36
989.70 990.13 989.92 989.46 989.59 988.21 986.85 987.17 987.13 986.95 986.95 987.29 987.59 987.90 988.08 988.21 988.24 988.21 988.36 988.59 989.06 989.46 989.66 989.77 990.16 991.75 992.88 993.52 994.46 995.62 996.56 997.34 998.09 999.08 999.97 1001.05 1002.36 1003.55 1004.67 1005.22 1005.65 1006.31 1007.03 1007.79
989.88 990.10 990.01 989.51 988.97 988.05 987.49 987.27 986.71 986.70 986.72 986.96 986.92 987.13 987.36 987.77 987.93 987.77 987.78 988.01 988.37 988.80 989.19 989.14 989.18 990.10 991.92 992.96 993.67 994.99 996.13 997.04 997.86 998.80 999.77 1000.81 1001.99 1003.01 1003.98 1004.66 1005.04 1005.79 1006.66 1007.57
990.46 990.22 989.97 989.57 988.55 987.50 987.38 987.69 987.88 987.81 987.16 987.59 987.34 987.13 986.96 986.93 986.75 986.58 987.24 987.72 987.73 987.98 988.25 988.67 988.89 989.32 990.98 992.44 993.37 994.68 996.06 997.08 997.69 998.53 999.56 1000.62 1001.70 1002.74 1003.48 1004.36 1005.06 1005.66 1006.42 1007.32
990.07 989.93 989.35 988.76 988.29 988.12 988.82 988.44 989.06 988.73 989.02 989.12 988.98 988.42 987.84 987.00 986.30 986.79 987.07 986.95 987.66 988.06 988.86 989.57 989.57 989.63 990.94 992.36 993.43 994.64 995.92 997.01 997.78 998.73 999.80 1000.74 1001.73 1002.63 1003.38 1004.17 1004.85 1005.44 1006.22 1006.92
989.34 989.15 988.53 989.11 988.56 989.07 990.30 990.03 989.12 990.28 990.27 989.82 989.36 988.86 988.37 988.05 986.86 987.21 987.92 988.55 989.02 989.18 989.49 989.81 990.22 990.38 991.67 992.67 993.75 994.85 996.08 997.32 998.08 998.99 1000.07 1001.01 1001.66 1002.48 1003.48 1004.47 1005.19 1005.82 1006.51 1007.07
988.55 988.04 988.37 988.56 988.34 989.70 991.09 991.09 991.20 990.79 990.63 990.38 989.97 989.45 988.72 988.54 988.04 988.44 989.01 989.39 990.10 990.46 990.21 990.36 990.81 991.88 992.68 993.96 994.64 995.26 996.52 997.78 998.49 999.33 1000.24 1001.17 1002.04 1002.62 1003.73 1004.73 1005.50 1006.07 1006.70 1006.80
988.91 989.07 988.67 989.63 990.44 990.72 990.65 991.39 991.39 991.50 991.15 991.05 990.39 989.56 989.22 989.36 989.71 989.97 990.29 990.90 991.22 991.57 991.87 992.51 992.95 992.87 993.87 994.94 995.47 996.32 997.33 998.37 999.11 999.83 1000.82 1001.74 1002.61 1003.18 1004.08 1004.94 1005.78 1006.02 1006.66 1007.25
995.11 994.13 989.64 990.24 991.29 991.98 992.34 992.48 992.43 992.42 992.25 992.13 992.27 991.16 991.23 991.25 991.69 991.80 992.10 992.38 992.58 992.70 993.27 994.03 994.36 994.21 995.05 995.89 996.43 997.11 998.06 998.85 999.75 1000.64 1001.46 1002.33 1003.10 1003.60 1004.64 1005.61 1006.19 1006.52 1006.92 1007.66
997.14 996.65 992.29 989.49 991.59 992.09 993.75 994.12 994.22 994.54 994.43 994.40 993.76 993.44 992.83 993.83 994.19 994.13 994.17 994.33 994.27 994.57 994.85 995.67 995.79 995.52 996.27 996.56 996.96 997.82 998.56 999.27 999.97 1000.92 1001.86 1002.69 1003.23 1003.60 1004.27 1004.91 1006.81 1007.70 1008.14 1008.35
Wind_Speed
22 20 25 27 25 22 22 20 11 15 24 19 17 13 13 16 15 17 20 19 20 20 20 19 18 18 18 16 16 16 14 12 9 10 10 10 10 9 8 8 3 5 6 7
20 25 26 25 26 26 27 21 18 14 20 19 18 18 15 20 15 16 18 21 20 21 20 20 19 19 19 18 18 16 15 12 11 10 9 7 6 9 11 10 7 9 5 11
24 24 27 28 26 27 26 25 17 16 20 17 18 19 18 17 18 17 17 18 22 21 22 22 21 21 20 20 19 17 15 15 13 13 8 6 7 5 5 5 7 8 10 6
26 21 27 28 30 27 25 24 19 18 16 13 19 14 21 20 21 20 19 19 20 23 22 22 24 23 22 21 20 17 17 16 15 14 12 11 10 9 9 8 4 2 4 6
24 22 28 30 29 27 24 25 22 22 18 24 23 18 11 20 24 19 21 21 21 21 23 24 24 25 22 22 21 19 18 17 16 16 15 10 12 9 7 5 6 2 5 6
25 23 28 24 26 24 23 24 24 23 19 17 18 18 19 18 19 20 24 21 21 21 22 22 22 22 22 21 21 20 19 16 18 16 17 14 11 11 8 8 6 5 7 8
23 28 23 20 22 26 29 25 17 18 18 18 26 20 21 16 15 18 19 19 21 20 21 22 23 22 21 22 21 19 19 19 18 18 16 17 14 11 10 7 9 7 8 7
22 24 30 21 29 27 31 28 20 26 17 20 25 23 21 18 9 15 12 14 21 21 20 22 23 22 21 22 21 20 20 19 19 19 17 15 15 12 12 12 9 9 8 7
21 26 22 28 26 29 29 31 26 27 25 21 19 23 19 6 19 16 15 15 14 20 22 25 24 23 23 21 21 21 19 20 19 19 16 16 15 15 14 13 12 8 6 7
23 18 25 26 25 28 35 23 28 23 28 26 24 23 16 19 17 17 16 16 16 16 21 21 23 24 21 23 20 21 20 19 18 19 17 16 16 16 13 11 11 11 9 8
27 20 15 25 32 30 22 29 25 25 24 21 20 18 19 19 18 22 22 20 17 18 19 20 22 23 24 22 22 22 22 20 19 19 18 18 17 17 15 13 13 12 10 10
27 18 19 21 22 28 28 28 32 19 27 20 23 18 14 17 15 13 17 14 11 16 16 21 22 22 24 24 23 24 23 22 21 19 18 19 17 17 17 16 15 15 13 14
23 24 19 22 22 28 31 33 32 32 23 26 22 19 16 4 16 21 19 16 17 4 2 8 11 20 21 23 22 22 23 24 23 20 20 19 19 19 19 18 16 16 16 16
10 22 27 19 23 18 29 30 32 30 25 20 26 25 22 22 14 10 10 10 11 9 8 10 13 15 19 19 22 20 21 23 22 22 20 19 19 18 18 16 17 17 17 18
17 21 26 29 27 23 24 30 30 34 28 28 23 31 28 23 22 18 20 17 19 15 10 9 13 13 15 17 18 20 18 19 20 19 19 18 17 16 15 15 15 15 16 15
22 19 21 24 25 27 25 25 26 28 30 30 30 30 24 27 22 17 16 19 17 14 17 11 11 14 16 18 17 18 19 18 17 18 18 16 17 16 15 15 15 15 14 13
24 19 20 21 22 21 26 26 27 28 28 28 29 26 22 25 24 22 20 20 20 20 19 16 13 15 14 18 16 18 18 16 17 15 16 15 15 15 14 15 16 16 16 16
20 21 16 16 21 27 17 23 26 26 23 25 26 26 25 26 27 26 21 19 22 22 21 20 14 16 18 19 20 16 18 17 16 15 14 14 15 14 14 15 15 15 15 14
19 18 17 16 19 19 23 25 25 24 27 26 26 24 27 27 25 25 26 25 22 20 20 19 18 18 17 19 17 16 16 17 16 16 15 15 16 15 14 15 15 14 13 11
21 16 16 20 25 28 18 7 6 3 11 12 17 18 24 22 19 17 19 25 24 19 19 17 16 12 19 17 19 17 17 16 16 16 16 15 15 14 15 14 13 9 10 9
22 20 22 18 17 21 8 9 4 12 3 6 9 12 17 17 17 17 12 14 10 16 14 15 14 13 15 15 16 16 16 17 16 16 15 14 14 13 12 9 10 8 8 8
24 22 18 20 23 12 6 5 11 4 4 8 9 9 13 17 18 24 6 4 7 10 12 14 14 12 15 14 15 15 14 13 13 14 14 13 13 10 8 11 8 7 6 7
26 22 16 18 20 13 12 5 4 3 3 5 9 8 5 12 6 2 1 4 6 9 10 12 13 14 13 13 13 16 14 13 14 13 12 11 11 9 8 9 8 6 7 8
18 23 19 11 9 11 14 11 10 7 6 3 4 3 4 2 3 7 7 6 6 8 9 10 16 17 16 14 15 15 14 13 13 14 12 11 10 11 11 8 7 7 6 6
7 22 11 15 17 16 15 14 13 12 9 10 8 14 18 16 11 11 12 10 9 12 13 14 14 16 17 16 16 16 15 14 13 12 12 11 9 8 8 10 7 2 7 3
3 8 5 11 17 14 15 14 14 12 11 11 14 16 17 13 9 12 12 10 10 10 10 11 13 17 16 16 17 15 15 14 14 13 10 9 9 9 10 11 8 15 10 6
Wind_Direction
194 204 211 214 215 231 230 209 214 211 164 194 200 217 165 168 203 198 186 194 195 202 195 197 196 192 192 193 190 193 202 186 195 200 199 213 204 182 220 251 180 199 231 254
183 215 214 220 218 225 243 237 219 194 155 192 200 206 208 175 198 211 207 192 205 199 200 194 193 197 195 192 185 191 196 189 200 195 222 222 218 210 205 207 210 203 223 214
212 206 214 212 222 221 234 243 220 216 153 180 237 211 202 199 187 203 217 214 197 207 202 192 196 201 198 195 194 188 193 192 193 229 199 201 266 264 262 229 229 214 207 216
227 212 204 223 222 219 223 239 253 230 156 220 208 249 195 204 200 196 208 216 210 199 207 201 194 201 204 199 193 195 191 196 197 205 230 200 207 221 215 223 223 136 180 225
214 215 209 215 219 221 229 224 231 245 191 236 195 226 213 203 192 195 205 208 214 206 203 208 201 198 206 203 198 195 194 195 204 196 224 207 222 218 237 218 130 180 151 219
237 212 231 214 222 224 231 239 231 230 249 233 222 202 230 169 198 192 195 204 207 209 202 205 209 201 200 206 205 198 189 196 198 201 198 229 210 229 239 203 171 199 196 180
222 231 215 225 220 216 226 228 231 225 224 240 215 201 226 218 181 211 207 192 197 204 206 200 205 205 198 201 201 202 189 192 197 201 202 204 222 209 233 237 197 224 198 185
215 210 225 205 220 216 216 221 227 222 227 229 235 229 216 214 223 182 235 214 188 190 204 207 201 203 198 197 197 199 190 188 195 199 201 198 204 212 217 207 235 205 220 184
214 225 210 217 216 230 208 221 226 238 230 237 228 220 235 259 219 230 240 250 208 187 199 205 203 202 201 193 194 194 197 190 194 199 196 199 196 215 212 217 193 232 216 166
235 246 212 212 218 222 239 212 219 228 237 235 228 240 221 203 223 246 230 240 236 202 194 203 202 200 200 195 195 194 195 193 195 197 194 198 197 201 220 203 198 214 193 218
232 240 228 213 202 215 217 233 220 232 235 247 243 234 218 192 205 221 226 226 225 211 195 198 202 202 196 198 193 194 195 198 195 198 197 198 197 198 200 213 198 205 196 184
215 228 233 233 226 213 230 226 235 224 224 245 260 248 206 210 181 218 219 217 241 216 212 193 194 201 199 196 201 196 198 197 198 202 200 197 196 196 199 207 200 196 190 187
202 224 226 221 239 212 214 233 226 232 225 230 239 235 245 212 199 206 218 239 243 197 259 293 216 197 200 191 196 202 194 198 198 200 199 198 199 198 200 199 199 195 186 188
298 220 226 225 225 223 216 222 239 232 232 224 234 243 239 235 211 231 214 244 257 226 211 224 242 235 190 197 189 200 193 200 196 195 201 199 199 201 201 195 198 195 190 190
246 239 228 226 249 227 227 216 225 240 237 237 233 229 237 242 239 227 213 236 244 237 217 211 236 228 188 194 188 193 200 197 195 193 196 197 193 199 198 196 205 193 201 200
227 231 240 237 223 243 251 217 226 239 242 243 245 251 232 242 244 239 225 234 242 259 265 200 211 224 197 195 191 188 199 197 198 190 193 189 187 189 190 201 204 195 201 201
213 218 224 231 234 238 238 243 222 216 224 238 246 251 255 258 256 251 234 242 250 252 258 260 198 219 202 197 190 193 192 195 189 196 189 183 176 183 192 202 217 189 199 197
226 218 226 228 222 231 241 239 242 254 245 230 236 242 244 248 253 259 257 248 238 245 255 261 202 201 210 200 191 190 188 189 186 191 182 172 175 180 192 210 204 199 201 207
225 224 218 228 236 242 227 239 234 234 236 240 244 240 236 238 245 246 246 247 250 241 242 242 242 193 195 197 181 181 185 184 178 180 177 174 184 188 190 203 208 203 202 199
236 229 234 204 233 228 227 65 30 345 252 262 282 286 251 243 230 238 238 237 240 247 236 253 262 190 176 187 180 172 183 180 177 177 175 175 179 184 194 197 205 190 197 204
217 217 227 225 221 236 93 127 139 208 253 349 309 296 288 282 247 243 261 229 261 234 240 247 235 197 165 180 166 169 176 179 174 168 168 168 173 181 188 171 187 158 170 172
205 203 215 216 231 216 28 209 217 127 310 347 324 307 296 286 257 239 150 211 233 225 223 205 199 170 161 166 152 160 159 157 152 152 157 164 164 176 151 155 163 152 155 180
206 208 210 217 225 100 129 97 97 27 1 342 317 304 289 279 303 58 141 166 203 206 186 181 152 143 142 140 150 142 135 148 144 146 142 153 144 149 146 139 141 151 175 190
192 205 216 146 119 114 94 77 70 71 75 324 331 127 114 136 116 111 110 130 143 139 130 135 145 140 138 135 123 120 132 133 142 135 138 139 152 130 142 143 158 162 178 191
8 323 178 107 120 107 98 90 83 75 68 80 54 65 56 63 75 101 96 95 102 120 130 142 132 125 126 125 127 125 128 136 128 131 135 141 136 137 101 63 41 109 61 348
40 271 274 127 149 101 101 85 84 88 79 63 68 69 66 64 68 76 79 72 75 93 98 108 118 118 119 121 120 123 125 129 126 133 133 138 141 148 152 144 118 53 53 48